QPF
0.00 0.00 0.00 0.00 0.00 0.00 0.00 0.00 0.00 0.00 0.00 0.00 0.00 0.00 0.00 0.00 0.00 0.00 0.00 0.00 0.00 0.00 0.00 0.00 0.00 0.01 0.01 0.03 0.04 0.05 0.04 0.03 0.02 0.02 0.02 0.02 0.02 0.02 0.02 0.02 0.02 0.01 0.01 0.01
0.00 0.00 0.00 0.00 0.00 0.00 0.00 0.00 0.00 0.00 0.00 0.00 0.00 0.00 0.00 0.00 0.00 0.00 0.00 0.00 0.00 0.00 0.00 0.00 0.00 0.01 0.01 0.01 0.03 0.04 0.04 0.04 0.03 0.02 0.02 0.02 0.02 0.03 0.03 0.03 0.02 0.02 0.01 0.02
0.00 0.00 0.00 0.00 0.00 0.00 0.00 0.00 0.00 0.00 0.00 0.00 0.00 0.00 0.00 0.00 0.00 0.00 0.00 0.00 0.01 0.01 0.01 0.01 0.01 0.00 0.01 0.01 0.02 0.03 0.04 0.05 0.04 0.02 0.01 0.01 0.02 0.03 0.03 0.03 0.02 0.02 0.02 0.01
0.01 0.00 0.00 0.00 0.00 0.00 0.00 0.00 0.00 0.00 0.00 0.00 0.00 0.00 0.00 0.00 0.00 0.00 0.00 0.01 0.01 0.01 0.01 0.01 0.01 0.00 0.00 0.01 0.02 0.04 0.04 0.04 0.02 0.01 0.01 0.01 0.01 0.03 0.04 0.03 0.02 0.02 0.01 0.01
0.01 0.01 0.00 0.00 0.00 0.00 0.00 0.00 0.00 0.00 0.00 0.00 0.00 0.00 0.00 0.00 0.00 0.01 0.01 0.01 0.01 0.01 0.01 0.01 0.01 0.00 0.01 0.01 0.03 0.05 0.05 0.03 0.03 0.03 0.02 0.03 0.02 0.03 0.04 0.03 0.03 0.02 0.01 0.01
0.01 0.01 0.01 0.01 0.00 0.00 0.00 0.00 0.00 0.00 0.00 0.00 0.00 0.00 0.00 0.00 0.00 0.01 0.01 0.02 0.02 0.01 0.01 0.01 0.01 0.01 0.01 0.02 0.03 0.05 0.06 0.04 0.05 0.05 0.05 0.04 0.03 0.03 0.04 0.03 0.03 0.02 0.02 0.02
0.01 0.01 0.01 0.00 0.00 0.00 0.00 0.00 0.00 0.00 0.00 0.00 0.00 0.00 0.00 0.00 0.00 0.00 0.01 0.02 0.02 0.01 0.01 0.01 0.01 0.01 0.01 0.02 0.03 0.04 0.04 0.03 0.04 0.05 0.06 0.05 0.05 0.04 0.03 0.03 0.03 0.02 0.02 0.02
0.01 0.01 0.01 0.00 0.00 0.01 0.00 0.00 0.00 0.00 0.00 0.00 0.00 0.00 0.00 0.00 0.00 0.00 0.01 0.01 0.02 0.01 0.01 0.01 0.01 0.01 0.02 0.02 0.02 0.02 0.03 0.03 0.03 0.03 0.03 0.03 0.04 0.04 0.03 0.02 0.02 0.02 0.02 0.01
0.01 0.01 0.01 0.00 0.00 0.00 0.00 0.00 0.00 0.00 0.00 0.00 0.00 0.00 0.00 0.00 0.00 0.00 0.00 0.01 0.02 0.01 0.01 0.01 0.02 0.02 0.02 0.02 0.02 0.02 0.03 0.03 0.03 0.03 0.02 0.01 0.02 0.03 0.03 0.03 0.02 0.02 0.02 0.02
0.01 0.01 0.00 0.00 0.00 0.00 0.00 0.00 0.00 0.00 0.00 0.00 0.00 0.00 0.00 0.00 0.00 0.00 0.00 0.01 0.02 0.02 0.01 0.02 0.02 0.01 0.01 0.01 0.01 0.01 0.03 0.04 0.03 0.03 0.02 0.01 0.01 0.01 0.02 0.02 0.02 0.01 0.01 0.01
0.01 0.01 0.00 0.00 0.00 0.00 0.00 0.00 0.00 0.00 0.00 0.00 0.00 0.00 0.00 0.00 0.00 0.00 0.00 0.00 0.01 0.02 0.01 0.01 0.01 0.01 0.01 0.01 0.00 0.01 0.02 0.02 0.03 0.03 0.03 0.02 0.01 0.01 0.01 0.01 0.02 0.02 0.01 0.01
0.01 0.00 0.00 0.00 0.00 0.00 0.00 0.00 0.00 0.00 0.00 0.00 0.00 0.00 0.00 0.00 0.00 0.00 0.00 0.00 0.00 0.01 0.01 0.01 0.01 0.01 0.00 0.00 0.00 0.00 0.01 0.02 0.02 0.03 0.03 0.03 0.02 0.01 0.01 0.01 0.01 0.02 0.01 0.01
0.01 0.01 0.00 0.00 0.00 0.00 0.00 0.00 0.00 0.00 0.00 0.00 0.00 0.00 0.01 0.01 0.00 0.00 0.00 0.00 0.00 0.01 0.01 0.01 0.00 0.00 0.00 0.00 0.00 0.00 0.00 0.01 0.01 0.02 0.02 0.03 0.03 0.03 0.02 0.01 0.01 0.01 0.01 0.01
0.00 0.00 0.00 0.00 0.00 0.00 0.00 0.00 0.00 0.00 0.00 0.00 0.00 0.00 0.00 0.00 0.00 0.00 0.01 0.00 0.00 0.00 0.01 0.01 0.00 0.00 0.00 0.00 0.00 0.00 0.00 0.01 0.01 0.01 0.01 0.02 0.02 0.02 0.02 0.02 0.02 0.01 0.01 0.01
0.00 0.00 0.00 0.00 0.00 0.00 0.00 0.00 0.00 0.00 0.00 0.00 0.00 0.00 0.00 0.00 0.00 0.00 0.01 0.00 0.00 0.00 0.01 0.01 0.01 0.01 0.00 0.00 0.00 0.00 0.00 0.00 0.01 0.01 0.01 0.01 0.01 0.02 0.02 0.02 0.02 0.02 0.01 0.01
0.01 0.00 0.00 0.00 0.00 0.00 0.00 0.00 0.00 0.00 0.00 0.00 0.00 0.00 0.00 0.00 0.01 0.00 0.01 0.01 0.01 0.01 0.00 0.01 0.01 0.01 0.00 0.00 0.00 0.00 0.01 0.01 0.01 0.01 0.01 0.01 0.01 0.01 0.01 0.02 0.02 0.03 0.02 0.01
0.01 0.01 0.01 0.01 0.00 0.00 0.00 0.00 0.00 0.00 0.00 0.00 0.00 0.00 0.00 0.00 0.00 0.00 0.01 0.01 0.01 0.01 0.00 0.01 0.01 0.01 0.01 0.00 0.00 0.00 0.01 0.01 0.01 0.01 0.01 0.00 0.01 0.01 0.01 0.01 0.02 0.02 0.03 0.02
0.01 0.02 0.01 0.01 0.01 0.00 0.00 0.00 0.00 0.00 0.00 0.00 0.00 0.00 0.00 0.00 0.00 0.01 0.01 0.02 0.01 0.01 0.01 0.01 0.01 0.01 0.00 0.00 0.00 0.00 0.00 0.01 0.00 0.00 0.00 0.00 0.01 0.01 0.01 0.01 0.01 0.02 0.02 0.02
0.02 0.01 0.01 0.00 0.00 0.00 0.00 0.00 0.00 0.00 0.00 0.00 0.00 0.00 0.00 0.00 0.00 0.01 0.01 0.02 0.02 0.02 0.02 0.02 0.02 0.01 0.01 0.01 0.01 0.01 0.01 0.01 0.01 0.01 0.01 0.01 0.01 0.01 0.01 0.01 0.01 0.01 0.01 0.01
0.02 0.02 0.01 0.00 0.00 0.00 0.00 0.00 0.00 0.00 0.00 0.00 0.00 0.00 0.00 0.00 0.00 0.01 0.01 0.01 0.02 0.03 0.03 0.03 0.02 0.02 0.02 0.02 0.02 0.02 0.01 0.01 0.01 0.01 0.01 0.01 0.01 0.01 0.02 0.02 0.02 0.01 0.01 0.02
0.02 0.02 0.01 0.01 0.00 0.00 0.00 0.00 0.00 0.00 0.00 0.00 0.00 0.01 0.01 0.01 0.01 0.01 0.02 0.02 0.01 0.02 0.03 0.03 0.02 0.02 0.02 0.02 0.02 0.02 0.02 0.02 0.02 0.02 0.01 0.01 0.01 0.01 0.02 0.03 0.03 0.02 0.03 0.03
0.02 0.02 0.02 0.02 0.01 0.01 0.01 0.01 0.01 0.01 0.01 0.01 0.01 0.01 0.02 0.01 0.01 0.01 0.01 0.02 0.01 0.01 0.02 0.02 0.01 0.01 0.01 0.01 0.01 0.01 0.02 0.02 0.02 0.02 0.01 0.01 0.01 0.01 0.01 0.02 0.03 0.03 0.04 0.04
0.02 0.02 0.02 0.02 0.02 0.01 0.01 0.01 0.01 0.02 0.02 0.02 0.02 0.02 0.02 0.01 0.01 0.01 0.01 0.01 0.01 0.01 0.01 0.01 0.01 0.02 0.02 0.02 0.01 0.01 0.01 0.01 0.02 0.02 0.02 0.01 0.01 0.01 0.01 0.01 0.01 0.02 0.03 0.04
0.01 0.02 0.02 0.02 0.02 0.01 0.01 0.01 0.02 0.02 0.02 0.02 0.02 0.02 0.02 0.01 0.01 0.01 0.00 0.00 0.01 0.01 0.01 0.02 0.02 0.02 0.02 0.01 0.01 0.02 0.01 0.01 0.02 0.03 0.02 0.01 0.01 0.01 0.01 0.01 0.01 0.01 0.01 0.02
0.01 0.01 0.01 0.01 0.01 0.01 0.01 0.01 0.01 0.01 0.01 0.01 0.01 0.01 0.02 0.01 0.01 0.01 0.00 0.00 0.01 0.01 0.02 0.02 0.03 0.02 0.01 0.01 0.01 0.01 0.02 0.02 0.02 0.03 0.02 0.02 0.01 0.01 0.01 0.01 0.01 0.01 0.01 0.01
0.01 0.01 0.01 0.00 0.00 0.00 0.00 0.00 0.00 0.00 0.01 0.01 0.01 0.02 0.02 0.01 0.01 0.01 0.00 0.00 0.01 0.01 0.02 0.03 0.04 0.03 0.03 0.03 0.02 0.02 0.02 0.02 0.03 0.03 0.02 0.02 0.02 0.02 0.02 0.01 0.01 0.01 0.01 0.01
0.01 0.01 0.00 0.00 0.00 0.00 0.00 0.01 0.00 0.00 0.01 0.01 0.01 0.02 0.02 0.01 0.01 0.01 0.01 0.01 0.01 0.01 0.03 0.04 0.05 0.04 0.04 0.04 0.03 0.03 0.03 0.03 0.02 0.02 0.02 0.02 0.02 0.02 0.02 0.01 0.01 0.01 0.01 0.01
MSLP
1006.39 1006.25 1006.11 1005.96 1005.79 1005.58 1005.33 1005.02 1004.68 1004.31 1003.97 1003.70 1003.54 1003.55 1003.76 1004.17 1004.76 1005.52 1006.39 1007.32 1008.25 1009.13 1009.94 1010.66 1011.30 1011.86 1012.38 1012.87 1013.35 1013.82 1014.29 1014.75 1015.19 1015.61 1015.99 1016.34 1016.66 1016.96 1017.26 1017.57 1017.88 1018.22 1018.58 1018.96
1006.30 1006.06 1005.77 1005.43 1005.04 1004.62 1004.17 1003.73 1003.31 1002.94 1002.66 1002.49 1002.47 1002.63 1002.96 1003.47 1004.12 1004.91 1005.77 1006.67 1007.58 1008.45 1009.27 1010.04 1010.74 1011.40 1012.02 1012.62 1013.20 1013.77 1014.31 1014.84 1015.34 1015.81 1016.25 1016.65 1017.03 1017.38 1017.72 1018.05 1018.37 1018.69 1019.01 1019.33
1005.98 1005.66 1005.24 1004.74 1004.17 1003.57 1002.97 1002.40 1001.92 1001.54 1001.30 1001.22 1001.33 1001.61 1002.05 1002.64 1003.35 1004.15 1005.01 1005.89 1006.78 1007.64 1008.49 1009.30 1010.09 1010.85 1011.60 1012.31 1013.01 1013.68 1014.31 1014.91 1015.46 1015.97 1016.45 1016.89 1017.30 1017.70 1018.07 1018.43 1018.77 1019.09 1019.40 1019.69
1005.40 1005.02 1004.50 1003.86 1003.15 1002.41 1001.68 1001.03 1000.49 1000.12 999.93 999.94 1000.15 1000.54 1001.09 1001.76 1002.52 1003.34 1004.19 1005.06 1005.93 1006.80 1007.66 1008.53 1009.40 1010.27 1011.12 1011.96 1012.77 1013.54 1014.26 1014.92 1015.51 1016.06 1016.55 1017.01 1017.45 1017.86 1018.26 1018.65 1019.02 1019.36 1019.68 1019.98
1004.64 1004.18 1003.57 1002.83 1002.01 1001.16 1000.34 999.63 999.07 998.72 998.59 998.68 999.00 999.50 1000.15 1000.90 1001.71 1002.55 1003.41 1004.27 1005.13 1006.00 1006.88 1007.79 1008.72 1009.68 1010.64 1011.58 1012.49 1013.35 1014.13 1014.84 1015.47 1016.03 1016.53 1016.99 1017.43 1017.86 1018.28 1018.70 1019.10 1019.48 1019.84 1020.17
1003.82 1003.27 1002.57 1001.74 1000.82 999.89 999.01 998.27 997.71 997.39 997.32 997.51 997.94 998.55 999.29 1000.12 1001.00 1001.88 1002.74 1003.60 1004.45 1005.31 1006.20 1007.13 1008.11 1009.12 1010.15 1011.18 1012.16 1013.09 1013.93 1014.68 1015.33 1015.89 1016.39 1016.84 1017.28 1017.71 1018.14 1018.58 1019.02 1019.46 1019.87 1020.26
1003.10 1002.44 1001.64 1000.72 999.72 998.72 997.80 997.04 996.49 996.21 996.21 996.49 997.01 997.73 998.57 999.49 1000.42 1001.34 1002.22 1003.08 1003.91 1004.76 1005.64 1006.57 1007.55 1008.60 1009.67 1010.75 1011.79 1012.77 1013.65 1014.43 1015.10 1015.67 1016.16 1016.61 1017.03 1017.46 1017.90 1018.36 1018.84 1019.33 1019.81 1020.27
1002.58 1001.80 1000.89 999.88 998.81 997.76 996.80 996.02 995.49 995.24 995.30 995.65 996.26 997.07 998.00 998.99 999.99 1000.94 1001.85 1002.70 1003.52 1004.34 1005.19 1006.09 1007.07 1008.11 1009.20 1010.30 1011.38 1012.39 1013.31 1014.12 1014.81 1015.39 1015.88 1016.33 1016.74 1017.17 1017.62 1018.10 1018.61 1019.15 1019.69 1020.22
1002.30 1001.41 1000.40 999.31 998.18 997.07 996.09 995.29 994.76 994.53 994.63 995.03 995.71 996.58 997.58 998.63 999.67 1000.66 1001.58 1002.42 1003.22 1004.01 1004.82 1005.69 1006.63 1007.65 1008.73 1009.83 1010.93 1011.97 1012.92 1013.76 1014.48 1015.09 1015.60 1016.05 1016.47 1016.90 1017.35 1017.85 1018.38 1018.95 1019.54 1020.13
1002.21 1001.23 1000.16 999.00 997.82 996.68 995.67 994.86 994.31 994.08 994.19 994.61 995.31 996.22 997.26 998.35 999.43 1000.44 1001.37 1002.21 1002.98 1003.74 1004.51 1005.33 1006.22 1007.20 1008.25 1009.35 1010.45 1011.51 1012.50 1013.38 1014.14 1014.78 1015.32 1015.80 1016.23 1016.67 1017.12 1017.62 1018.18 1018.77 1019.38 1020.01
1002.18 1001.17 1000.07 998.90 997.70 996.54 995.50 994.67 994.10 993.85 993.93 994.34 995.04 995.95 996.99 998.10 999.19 1000.21 1001.15 1001.98 1002.74 1003.47 1004.19 1004.97 1005.82 1006.75 1007.77 1008.85 1009.95 1011.03 1012.04 1012.96 1013.77 1014.46 1015.04 1015.55 1016.01 1016.45 1016.92 1017.42 1017.98 1018.57 1019.21 1019.85
1002.07 1001.09 1000.01 998.86 997.68 996.53 995.49 994.64 994.05 993.76 993.80 994.16 994.82 995.69 996.72 997.81 998.90 999.93 1000.86 1001.70 1002.45 1003.16 1003.85 1004.59 1005.40 1006.29 1007.27 1008.33 1009.42 1010.50 1011.54 1012.50 1013.35 1014.09 1014.72 1015.26 1015.74 1016.21 1016.68 1017.19 1017.74 1018.33 1018.96 1019.60
1001.77 1000.87 999.87 998.79 997.67 996.56 995.53 994.67 994.05 993.71 993.69 993.99 994.58 995.40 996.38 997.45 998.52 999.54 1000.48 1001.32 1002.08 1002.78 1003.46 1004.17 1004.95 1005.80 1006.75 1007.77 1008.85 1009.93 1010.98 1011.96 1012.84 1013.62 1014.28 1014.86 1015.37 1015.86 1016.34 1016.84 1017.39 1017.97 1018.59 1019.22
1001.25 1000.47 999.59 998.62 997.58 996.53 995.54 994.68 994.03 993.64 993.55 993.78 994.29 995.04 995.96 996.98 998.03 999.04 999.99 1000.84 1001.61 1002.31 1003.00 1003.70 1004.45 1005.28 1006.19 1007.18 1008.22 1009.28 1010.32 1011.31 1012.21 1013.00 1013.70 1014.30 1014.84 1015.34 1015.83 1016.33 1016.87 1017.45 1018.05 1018.67
1000.58 999.95 999.21 998.36 997.42 996.44 995.49 994.64 993.97 993.53 993.37 993.51 993.94 994.60 995.45 996.42 997.43 998.43 999.38 1000.25 1001.04 1001.76 1002.46 1003.16 1003.90 1004.70 1005.58 1006.53 1007.54 1008.56 1009.57 1010.54 1011.43 1012.24 1012.94 1013.56 1014.11 1014.62 1015.12 1015.63 1016.16 1016.72 1017.32 1017.92
999.92 999.43 998.82 998.08 997.23 996.32 995.41 994.57 993.88 993.40 993.17 993.22 993.55 994.12 994.89 995.79 996.76 997.74 998.68 999.56 1000.37 1001.12 1001.84 1002.55 1003.29 1004.08 1004.93 1005.84 1006.80 1007.77 1008.74 1009.68 1010.55 1011.33 1012.03 1012.65 1013.21 1013.72 1014.22 1014.73 1015.26 1015.82 1016.39 1016.98
999.47 999.08 998.56 997.91 997.13 996.27 995.39 994.55 993.84 993.30 993.00 992.96 993.19 993.66 994.33 995.15 996.06 997.00 997.93 998.81 999.64 1000.42 1001.16 1001.89 1002.63 1003.41 1004.23 1005.11 1006.02 1006.95 1007.87 1008.75 1009.58 1010.34 1011.02 1011.63 1012.18 1012.70 1013.20 1013.70 1014.22 1014.76 1015.33 1015.90
999.35 999.02 998.56 997.95 997.21 996.37 995.50 994.65 993.90 993.32 992.94 992.80 992.92 993.28 993.85 994.57 995.40 996.28 997.17 998.04 998.87 999.66 1000.42 1001.17 1001.92 1002.70 1003.51 1004.36 1005.23 1006.11 1006.98 1007.82 1008.61 1009.33 1009.99 1010.58 1011.11 1011.62 1012.11 1012.60 1013.11 1013.64 1014.18 1014.72
999.65 999.33 998.87 998.27 997.53 996.69 995.81 994.94 994.15 993.51 993.05 992.82 992.83 993.07 993.51 994.11 994.83 995.63 996.46 997.29 998.10 998.89 999.66 1000.42 1001.19 1001.97 1002.77 1003.60 1004.45 1005.30 1006.13 1006.92 1007.67 1008.36 1008.99 1009.55 1010.07 1010.56 1011.03 1011.51 1011.99 1012.49 1013.00 1013.51
1000.31 999.96 999.47 998.84 998.08 997.23 996.33 995.43 994.61 993.91 993.38 993.05 992.94 993.05 993.36 993.83 994.42 995.11 995.84 996.61 997.37 998.14 998.90 999.66 1000.44 1001.22 1002.03 1002.85 1003.68 1004.51 1005.31 1006.08 1006.80 1007.45 1008.05 1008.59 1009.09 1009.56 1010.01 1010.46 1010.91 1011.38 1011.84 1012.31
1001.15 1000.75 1000.22 999.56 998.78 997.91 996.99 996.08 995.23 994.49 993.90 993.49 993.27 993.26 993.42 993.74 994.19 994.74 995.36 996.02 996.72 997.43 998.16 998.91 999.68 1000.47 1001.27 1002.09 1002.92 1003.73 1004.52 1005.26 1005.96 1006.59 1007.17 1007.69 1008.16 1008.61 1009.03 1009.45 1009.86 1010.29 1010.71 1011.12
1001.96 1001.52 1000.95 1000.27 999.48 998.61 997.71 996.81 995.96 995.20 994.58 994.10 993.80 993.66 993.69 993.86 994.15 994.55 995.02 995.57 996.16 996.79 997.46 998.17 998.91 999.69 1000.48 1001.30 1002.11 1002.91 1003.69 1004.42 1005.09 1005.71 1006.27 1006.77 1007.23 1007.65 1008.04 1008.43 1008.81 1009.19 1009.57 1009.93
1002.53 1002.07 1001.50 1000.83 1000.06 999.23 998.37 997.52 996.71 995.97 995.34 994.83 994.46 994.23 994.13 994.16 994.29 994.53 994.85 995.24 995.71 996.23 996.82 997.45 998.14 998.88 999.64 1000.43 1001.23 1002.01 1002.76 1003.48 1004.14 1004.74 1005.28 1005.77 1006.20 1006.61 1006.99 1007.35 1007.70 1008.05 1008.39 1008.72
1002.74 1002.29 1001.75 1001.11 1000.41 999.66 998.89 998.12 997.39 996.72 996.12 995.61 995.21 994.91 994.71 994.61 994.59 994.67 994.83 995.06 995.38 995.77 996.23 996.77 997.37 998.03 998.74 999.48 1000.23 1000.98 1001.70 1002.39 1003.02 1003.61 1004.13 1004.61 1005.04 1005.43 1005.80 1006.15 1006.48 1006.81 1007.13 1007.44
1002.54 1002.14 1001.65 1001.10 1000.50 999.86 999.21 998.57 997.96 997.38 996.85 996.39 995.98 995.64 995.37 995.16 995.02 994.94 994.94 995.01 995.17 995.40 995.73 996.13 996.62 997.18 997.80 998.45 999.13 999.82 1000.49 1001.13 1001.74 1002.30 1002.81 1003.27 1003.69 1004.09 1004.45 1004.80 1005.14 1005.47 1005.79 1006.09
1002.02 1001.68 1001.28 1000.83 1000.35 999.85 999.35 998.86 998.38 997.93 997.50 997.10 996.73 996.39 996.07 995.78 995.53 995.33 995.18 995.09 995.08 995.16 995.32 995.58 995.93 996.35 996.84 997.39 997.97 998.57 999.17 999.75 1000.31 1000.84 1001.33 1001.78 1002.21 1002.60 1002.98 1003.35 1003.70 1004.04 1004.37 1004.69
1001.32 1001.05 1000.74 1000.40 1000.05 999.70 999.35 999.01 998.69 998.37 998.06 997.74 997.42 997.09 996.76 996.43 996.10 995.79 995.52 995.29 995.13 995.05 995.05 995.15 995.34 995.61 995.96 996.38 996.84 997.33 997.84 998.34 998.84 999.32 999.79 1000.23 1000.65 1001.06 1001.45 1001.83 1002.21 1002.57 1002.93 1003.27
Thickness
5687 5689 5686 5685 5684 5685 5684 5687 5684 5689 5689 5694 5694 5693 5692 5691 5688 5685 5682 5679 5676 5673 5671 5668 5665 5663 5661 5658 5656 5654 5652 5649 5648 5646 5644 5642 5641 5640 5639 5639 5640 5640 5639 5639
5676 5679 5678 5676 5681 5681 5680 5682 5683 5684 5685 5694 5693 5691 5688 5686 5682 5678 5676 5674 5672 5669 5666 5663 5661 5658 5656 5653 5651 5649 5646 5644 5642 5640 5638 5636 5635 5635 5634 5633 5633 5633 5633 5633
5668 5673 5670 5670 5681 5679 5679 5682 5681 5678 5684 5687 5683 5681 5681 5679 5677 5674 5672 5669 5667 5665 5662 5660 5658 5655 5651 5649 5646 5644 5641 5639 5637 5636 5633 5632 5630 5629 5628 5628 5627 5627 5627 5626
5660 5660 5653 5677 5684 5681 5676 5677 5680 5679 5679 5679 5678 5676 5676 5675 5672 5670 5667 5664 5662 5661 5658 5656 5654 5650 5647 5644 5642 5638 5636 5633 5632 5630 5628 5626 5625 5624 5623 5623 5622 5621 5621 5621
5651 5650 5660 5670 5674 5672 5669 5669 5675 5673 5672 5671 5671 5670 5671 5670 5667 5665 5662 5661 5659 5657 5654 5651 5648 5645 5642 5639 5637 5634 5631 5628 5628 5626 5624 5622 5620 5619 5618 5618 5617 5616 5615 5615
5644 5639 5646 5664 5670 5671 5666 5661 5670 5668 5665 5664 5662 5659 5663 5664 5661 5658 5656 5655 5653 5651 5649 5645 5643 5640 5637 5635 5633 5630 5626 5624 5623 5622 5619 5617 5616 5615 5613 5612 5611 5610 5610 5610
5638 5637 5650 5661 5661 5660 5649 5656 5662 5662 5660 5658 5655 5657 5658 5657 5654 5652 5650 5649 5647 5645 5642 5639 5637 5635 5632 5631 5629 5626 5623 5620 5618 5617 5615 5613 5611 5609 5608 5607 5606 5605 5605 5604
5634 5631 5640 5652 5650 5648 5653 5657 5656 5655 5654 5652 5651 5650 5649 5648 5646 5645 5643 5642 5640 5638 5636 5633 5631 5629 5627 5625 5623 5621 5617 5614 5613 5611 5609 5607 5605 5603 5602 5601 5600 5599 5599 5598
5635 5638 5645 5646 5646 5648 5648 5647 5648 5647 5646 5644 5642 5641 5640 5640 5639 5638 5637 5635 5633 5631 5630 5628 5625 5623 5621 5619 5617 5614 5611 5609 5607 5605 5603 5601 5599 5597 5596 5595 5595 5594 5593 5592
5627 5633 5636 5636 5637 5638 5639 5638 5639 5638 5638 5636 5634 5634 5633 5633 5632 5631 5630 5628 5627 5625 5623 5622 5619 5617 5615 5613 5611 5609 5606 5604 5601 5600 5598 5596 5594 5593 5591 5590 5590 5588 5587 5586
5620 5626 5626 5627 5628 5629 5629 5630 5629 5629 5630 5629 5628 5627 5626 5626 5625 5624 5622 5622 5620 5619 5617 5616 5614 5611 5608 5606 5605 5604 5602 5599 5597 5594 5592 5590 5588 5586 5585 5583 5582 5581 5580 5579
5617 5624 5621 5623 5624 5623 5621 5621 5621 5620 5620 5621 5620 5619 5619 5619 5617 5616 5615 5615 5613 5612 5610 5609 5608 5605 5603 5600 5598 5598 5596 5594 5592 5589 5586 5584 5583 5581 5577 5575 5574 5572 5571 5570
5615 5616 5615 5615 5616 5615 5614 5614 5613 5613 5612 5612 5613 5612 5611 5610 5609 5608 5607 5607 5606 5604 5603 5602 5601 5598 5596 5594 5592 5591 5590 5588 5585 5583 5581 5579 5577 5576 5574 5571 5568 5566 5565 5563
5605 5605 5604 5606 5606 5607 5606 5606 5606 5606 5606 5605 5604 5603 5603 5602 5601 5600 5600 5599 5598 5597 5595 5594 5593 5591 5590 5588 5586 5584 5583 5580 5578 5576 5575 5573 5572 5570 5569 5567 5566 5564 5561 5557
5598 5599 5600 5600 5600 5599 5598 5598 5597 5597 5597 5597 5596 5595 5594 5593 5593 5592 5591 5591 5590 5589 5588 5587 5585 5583 5582 5580 5579 5577 5575 5573 5571 5569 5567 5566 5565 5563 5562 5560 5559 5558 5556 5553
5593 5592 5592 5592 5592 5591 5591 5591 5591 5591 5590 5589 5588 5587 5586 5585 5584 5583 5582 5582 5582 5581 5579 5578 5577 5575 5573 5572 5570 5568 5566 5563 5561 5561 5560 5558 5557 5555 5554 5553 5552 5551 5550 5548
5585 5585 5585 5586 5586 5585 5585 5585 5585 5585 5583 5581 5580 5579 5577 5577 5576 5575 5574 5574 5574 5572 5571 5570 5569 5567 5565 5564 5562 5561 5558 5556 5552 5552 5551 5550 5548 5547 5546 5545 5544 5543 5542 5539
5582 5582 5582 5582 5581 5580 5579 5578 5577 5576 5575 5573 5572 5570 5569 5569 5568 5567 5567 5566 5565 5564 5563 5561 5560 5558 5557 5555 5554 5552 5550 5549 5546 5544 5543 5541 5539 5539 5538 5537 5536 5535 5534 5532
5573 5573 5573 5573 5573 5572 5571 5570 5569 5568 5566 5565 5563 5562 5562 5561 5561 5560 5559 5557 5556 5556 5554 5553 5550 5550 5549 5547 5544 5543 5542 5541 5538 5536 5534 5532 5530 5530 5529 5528 5528 5527 5526 5524
5564 5565 5565 5564 5564 5564 5563 5562 5561 5560 5558 5557 5556 5554 5554 5553 5552 5552 5551 5550 5549 5547 5546 5544 5543 5542 5541 5539 5535 5535 5534 5532 5530 5528 5526 5525 5523 5522 5521 5520 5519 5519 5518 5517
5555 5555 5556 5555 5555 5555 5554 5554 5553 5551 5550 5548 5548 5547 5546 5545 5544 5543 5543 5542 5541 5539 5537 5535 5535 5534 5532 5530 5527 5527 5526 5524 5522 5521 5519 5517 5516 5515 5513 5512 5511 5510 5509 5508
5545 5546 5546 5546 5546 5546 5545 5545 5545 5543 5541 5540 5539 5538 5537 5536 5536 5535 5535 5534 5533 5529 5529 5528 5527 5525 5523 5520 5520 5519 5518 5516 5514 5512 5511 5509 5508 5507 5505 5504 5502 5501 5500 5499
5537 5537 5537 5538 5537 5537 5537 5536 5536 5534 5533 5531 5530 5529 5529 5529 5528 5527 5527 5525 5523 5521 5520 5520 5518 5515 5513 5512 5512 5512 5510 5508 5506 5504 5503 5501 5499 5498 5497 5495 5494 5492 5492 5491
5528 5528 5528 5528 5528 5528 5528 5527 5526 5525 5524 5523 5521 5521 5520 5520 5520 5519 5518 5515 5513 5512 5512 5511 5508 5506 5505 5505 5504 5504 5503 5501 5499 5496 5494 5492 5491 5489 5488 5486 5485 5484 5483 5482
5519 5519 5518 5518 5518 5519 5519 5518 5516 5516 5514 5514 5513 5512 5511 5511 5510 5509 5508 5507 5505 5503 5503 5502 5500 5498 5498 5498 5497 5496 5494 5493 5491 5488 5486 5484 5482 5481 5479 5478 5477 5476 5475 5475
5510 5510 5510 5510 5510 5509 5509 5508 5508 5507 5507 5506 5505 5504 5503 5501 5500 5499 5498 5498 5497 5495 5495 5494 5492 5491 5490 5489 5488 5487 5485 5484 5482 5480 5478 5476 5474 5472 5471 5470 5469 5468 5468 5467
5501 5501 5500 5501 5500 5500 5500 5500 5499 5499 5499 5498 5497 5495 5493 5492 5491 5490 5489 5489 5488 5487 5486 5485 5484 5483 5481 5480 5479 5478 5477 5476 5475 5472 5470 5468 5466 5465 5464 5462 5462 5461 5460 5460